Tracking 25734 objects as of 27-May-2022
HD Live streaming from Space Station
objects crossing your sky now

FREGAT DEB

Track FREGAT DEB now!
10-day predictions


NORAD ID: 46406
Int'l Code: 2011-037LK
Perigee: 787.0 km
Apogee: 4,455.6 km
Inclination: 51.6 °
Period: 141.4 minutes
Semi major axis: 8992 km
RCS: Unknown
Launch date: July 18, 2011
Source: Commonwealth of Independent States (former USSR) (CIS)
Launch site: TYURATAM MISSILE AND SPACE COMPLEX (TTMTR)

Note: This is SATELLITE DEBRIS
aabbcc
Your satellite tracking list
Your tracking list is empty




NASA's NSSDC Master Catalog

Two Line Element Set (TLE):
1 46406U 11037LM  22141.95664147  .00000201  00000-0  77176-3 0  9998
2 46406  51.5843  27.5695 2039851  16.7829 349.1379 10.18109918 67291
Source of the keplerian elements: AFSPC